User: anonymous   Login
Location: Clatteringshaws Loch
(55.0508°N, 4.2860°W)
Time: 17:18:32
(UTC+01:00)
Language:

Sapphire - Orbit

View from above orbital plane
View from above orbital plane
View from above satellite
View from above satellite

Ground track
Ground track

The orbit data is extracted from the following two-line orbital elements,

1 26932U 01043D   15247.53529665 -.00000006  00000-0  29647-4 0  9999
2 26932  67.0580 333.8663 0004155 272.9394  87.1231 14.30163969727182
Epoch (UTC): 04 September 2015 12:50:49
Eccentricity: 0.0004155
inclination: 67.0580°
perigee height: 788 km
apogee height: 794 km
right ascension of ascending node: 333.8663°
argument of perigee: 272.9394°
revolutions per day: 14.30163969
mean anomaly at epoch: 87.1231°
orbit number at epoch: 72718

The dashed part of the orbit path shows where the satellite is in the earth's shadow,  

DLR